Temp
18 18 18 18 19 19 19 19 19 19 19 19 20 20 20 20 20 20 20 20 20 20 20 20 20 20 20 19 19 19 19 19 19 19 19 18 18 18 18 18 17 16 16 15 14 14 14 14 14 14 13 13 12 11 11 11 11 11 11 11 11 11 11 10 10 10 10 9 9
18 18 18 18 18 18 18 18 18 19 19 19 19 19 19 20 20 20 20 20 20 20 20 20 20 20 20 19 19 19 19 19 19 18 18 17 17 17 17 17 17 16 16 15 14 14 14 14 14 13 13 12 12 11 11 11 11 11 11 11 11 11 10 9 9 9 9 9 9
18 18 18 18 18 18 18 18 18 18 19 19 19 19 19 19 19 19 19 19 19 19 19 19 19 19 19 19 19 19 18 18 18 17 17 17 17 17 16 16 16 16 16 15 14 14 13 13 13 13 12 12 11 11 11 11 11 11 11 11 11 10 9 9 9 8 8 8 8
18 18 18 18 18 18 18 18 19 19 19 19 19 19 19 19 19 19 19 19 19 19 19 19 19 19 19 19 19 19 18 17 17 16 16 16 16 16 16 16 16 16 15 15 14 13 12 12 12 12 11 11 11 11 11 11 11 11 11 11 10 9 9 8 8 8 8 8 7
18 18 18 18 18 18 18 18 18 18 19 19 19 19 19 19 19 19 19 19 19 19 19 19 19 19 19 19 19 19 18 17 16 15 15 15 15 15 15 15 15 15 15 14 13 12 11 11 11 11 11 11 11 11 11 11 11 11 11 10 9 8 8 8 7 7 7 7 7
18 18 17 17 18 18 18 18 18 18 18 18 18 18 18 19 19 19 19 19 19 19 19 19 18 18 18 18 18 17 17 16 15 15 15 15 15 15 15 15 15 14 14 14 13 12 12 11 11 10 10 10 10 10 10 11 11 10 9 8 8 7 7 7 7 6 6 6 6
17 17 17 17 17 17 17 17 17 18 18 18 18 18 18 18 18 18 19 19 19 19 19 19 18 18 18 17 17 16 16 15 15 15 15 14 14 15 15 14 14 14 13 13 13 12 11 10 10 10 9 9 9 9 9 10 10 9 8 8 7 7 7 6 6 6 6 6 5
16 16 16 16 17 17 17 17 17 17 17 17 18 18 18 18 18 18 18 18 18 18 19 18 18 18 17 17 16 16 15 15 15 15 14 14 14 14 14 14 14 13 13 12 12 11 10 10 9 9 9 9 9 8 8 8 8 8 8 8 7 7 7 6 6 6 5 5 5
16 16 16 16 16 16 16 16 16 17 17 17 17 17 17 17 17 17 17 18 18 18 18 18 18 17 17 16 16 15 15 14 14 14 14 14 14 13 13 13 13 12 12 12 11 10 9 9 9 9 8 8 8 8 8 7 7 7 7 7 7 7 6 6 6 5 5 5 4
15 15 15 15 15 15 16 16 16 16 16 17 17 17 17 17 17 17 17 17 17 17 17 17 17 16 15 15 15 15 14 14 14 13 13 13 13 12 12 11 11 11 11 10 10 9 9 9 8 8 8 8 8 8 7 7 7 7 7 7 6 6 6 5 5 5 4 4 4
15 15 15 15 15 15 15 16 16 16 16 16 16 16 17 16 16 16 16 16 16 16 16 16 16 15 15 15 14 14 13 13 13 13 12 12 11 11 10 10 10 9 9 9 9 9 8 8 8 8 7 7 7 7 7 6 6 6 6 6 6 5 5 5 4 4 4 3 3
14 14 14 14 14 15 15 15 16 16 16 16 16 16 16 15 15 15 15 15 15 15 15 15 14 14 14 13 13 12 12 12 12 12 11 11 10 10 9 9 9 9 8 8 8 8 8 7 7 7 7 6 6 6 6 6 6 6 5 5 5 4 4 4 3 3 3 3 3
14 14 14 14 14 15 15 15 15 15 15 15 15 14 14 14 13 13 14 14 14 14 13 13 13 12 12 12 12 12 12 11 11 11 10 10 9 9 9 8 8 8 8 7 7 7 7 7 6 6 6 6 6 6 6 5 5 5 5 4 4 4 3 3 3 2 2 2 2
14 13 14 14 14 14 14 14 14 14 13 13 13 12 12 12 12 12 12 12 12 12 12 11 11 11 11 11 10 10 10 10 10 9 9 9 8 8 8 8 8 7 7 7 7 6 6 6 6 6 6 5 5 5 5 5 5 4 4 4 3 3 3 2 2 2 2 2 2
13 13 13 13 13 13 13 13 13 12 12 11 11 10 10 10 10 10 10 11 11 11 11 10 10 10 10 9 9 9 9 9 9 8 8 8 7 7 7 7 7 7 7 6 6 6 6 6 5 5 5 5 5 5 4 4 4 4 3 3 3 3 2 2 2 2 2 1 1
12 12 12 12 12 12 12 12 11 11 10 10 9 9 9 9 9 9 9 10 10 10 10 10 9 9 9 9 9 8 8 8 8 8 8 7 7 7 7 6 6 6 6 6 6 6 6 5 5 5 5 5 5 4 4 4 3 3 3 3 2 2 2 2 2 1 1 1 1
12 12 11 11 11 11 10 10 10 9 9 9 8 8 8 8 8 8 9 9 9 9 9 9 9 8 8 8 8 8 8 8 8 8 7 7 7 6 6 6 6 6 6 6 7 6 6 5 5 5 5 5 4 4 4 3 3 3 3 2 2 2 2 2 1 1 1 1 1
11 11 10 10 10 10 9 9 9 8 8 8 8 7 8 8 8 8 8 8 8 8 8 7 7 7 8 8 8 8 7 7 7 7 7 7 6 6 6 6 5 5 6 6 7 6 6 5 5 5 5 4 4 4 4 3 3 3 3 2 2 2 1 1 1 1 1 1 1
10 9 9 9 9 9 8 8 8 7 7 7 7 7 7 7 7 7 7 7 7 7 7 7 7 7 7 7 7 7 6 6 6 6 6 6 6 5 5 5 5 5 6 6 6 6 5 5 5 4 4 4 4 3 3 3 3 3 2 2 2 1 1 1 1 1 1 1 1
9 8 8 8 8 7 7 7 7 7 6 6 6 6 6 6 6 6 6 6 6 6 6 6 6 6 6 6 6 6 5 5 5 5 5 5 5 5 5 5 5 5 5 5 5 5 5 4 4 4 4 3 3 3 3 3 2 2 2 2 1 1 1 1 1 1 1 1 1
8 7 7 7 7 6 6 6 6 6 6 6 6 6 6 6 6 6 5 5 5 6 5 5 5 5 5 5 5 5 5 4 4 4 4 4 4 4 4 4 4 4 4 4 4 4 4 4 3 3 3 3 2 2 2 2 2 2 1 1 1 1 1 1 1 1 0 0 0
7 7 6 6 6 6 6 6 6 5 5 5 5 5 5 5 5 5 5 5 5 5 5 5 4 4 4 4 4 4 4 4 4 4 4 4 3 3 3 3 3 3 3 3 3 3 3 3 3 2 2 2 2 2 2 2 2 1 1 1 1 0 0 0 0 0 0 0 0
6 6 6 5 5 5 5 5 5 5 5 4 4 4 4 4 4 4 5 5 5 4 4 4 4 4 4 4 4 4 4 4 3 3 3 3 3 3 3 2 2 2 2 2 2 3 2 2 2 2 2 1 1 1 1 1 1 1 1 0 0 0 -0 -0 -0 -0 -0 -0 0
5 5 5 5 5 5 5 4 4 4 4 4 4 4 4 4 4 4 4 4 4 4 4 3 3 3 3 3 3 3 3 3 3 2 2 2 2 2 2 2 2 2 2 2 2 2 2 2 1 1 1 1 1 1 1 1 0 0 0 -0 -0 -0 -0 -0 -0 -0 -0 -0 -0
4 4 4 4 4 4 4 4 4 4 4 3 4 4 4 4 4 4 4 3 3 3 3 3 3 2 2 2 2 2 2 2 2 2 2 2 2 2 2 2 2 1 1 1 1 2 1 1 1 1 1 1 1 1 0 0 -0 -0 -0 -0 -0 -1 -1 -0 -0 -0 -0 -0 -0
4 4 4 4 4 3 3 3 3 3 3 3 3 3 3 3 3 3 3 3 2 2 2 2 2 2 2 2 2 2 2 2 1 1 2 1 1 2 1 1 1 1 1 1 1 1 1 1 1 1 0 0 0 0 -0 -0 -0 -0 -1 -1 -1 -1 -1 -1 -1 -1 -0 -0 -0
3 3 3 3 3 3 3 3 3 3 3 3 3 3 2 2 2 2 2 2 2 2 2 2 2 2 2 2 1 1 1 1 1 1 1 1 1 1 1 1 1 1 1 1 1 1 1 1 1 0 0 0 -0 -0 -0 -1 -1 -1 -1 -1 -1 -1 -1 -1 -1 -1 -1 -1 -1
3 3 3 3 3 3 3 2 2 2 2 2 2 2 2 2 2 2 2 2 2 2 2 2 2 1 1 1 1 1 1 1 1 1 1 1 1 1 1 1 1 1 1 1 1 1 1 0 0 0 -0 -0 -0 -1 -1 -1 -1 -1 -1 -1 -1 -1 -1 -1 -1 -1 -1 -1 -1
2 2 2 3 3 2 2 2 2 2 2 2 2 2 2 2 2 2 2 2 2 2 1 1 1 1 1 1 1 1 1 1 1 1 1 1 1 1 1 1 1 1 1 1 1 1 0 0 0 -0 -0 -0 -0 -1 -1 -1 -1 -1 -1 -1 -1 -1 -1 -1 -1 -1 -1 -1 -1
2 2 2 2 2 2 2 2 2 2 2 2 2 2 2 2 2 2 2 2 1 1 1 1 1 1 1 1 1 1 1 1 1 1 1 1 1 1 1 1 1 1 1 1 1 0 0 -0 -0 -0 -0 -0 -0 -0 -1 -1 -1 -1 -1 -1 -1 -1 -1 -1 -1 -1 -1 -1 -1
2 2 2 2 2 2 2 2 2 2 2 2 2 1 1 1 1 1 1 1 1 1 1 1 1 1 1 1 1 1 1 1 1 1 1 1 1 1 1 1 1 1 1 1 0 0 -0 -0 -0 -0 0 0 0 -0 -0 -0 -1 -1 -1 -1 -1 -1 -2 -2 -2 -2 -2 -2 -2
1 1 1 1 1 1 2 2 1 1 1 1 1 1 1 1 1 1 1 1 1 1 1 1 1 1 1 1 2 2 2 1 1 1 1 1 1 1 1 0 0 0 0 0 -0 -0 -0 -0 -0 0 0 0 0 -0 -0 -0 -1 -1 -1 -2 -2 -2 -2 -2 -2 -2 -3 -3 -3
1 1 1 1 1 1 1 1 1 1 1 1 1 1 1 1 1 1 1 1 1 1 1 1 1 1 2 2 1 1 1 1 1 0 0 0 0 0 -0 -0 -0 -0 -0 -0 -0 -0 -0 -0 -0 -0 -0 -0 -0 -0 -1 -1 -1 -1 -2 -2 -2 -2 -2 -3 -3 -3 -3 -3 -3
1 1 1 1 1 1 1 1 1 1 1 1 1 1 1 1 1 1 1 1 1 1 1 2 2 2 1 1 1 1 0 0 0 -0 -0 -0 -0 -0 -0 -1 -0 -0 -0 -0 -1 -1 -1 -1 -0 -0 -0 -1 -1 -1 -1 -1 -2 -2 -2 -2 -3 -3 -3 -3 -3 -3 -3 -3 -3
1 1 1 1 1 1 1 1 1 1 1 1 1 1 1 1 1 1 1 1 1 1 1 1 1 1 1 1 0 0 -0 -0 -0 -0 -1 -1 -1 -1 -1 -1 -1 -1 -1 -1 -1 -1 -1 -1 -1 -1 -1 -1 -1 -1 -2 -2 -2 -2 -3 -3 -3 -3 -3 -3 -3 -3 -3 -3 -3
1 1 1 1 1 1 1 1 0 0 0 0 0 0 0 0 0 0 0 0 0 0 0 0 0 0 0 0 -0 -0 -0 -1 -1 -1 -1 -1 -1 -1 -1 -1 -1 -1 -1 -1 -1 -1 -1 -1 -1 -1 -1 -1 -1 -2 -2 -3 -3 -3 -3 -3 -3 -3 -3 -3 -3 -3 -3 -3 -3
1 1 1 1 0 0 0 0 0 0 0 0 0 0 0 0 0 0 0 0 0 0 -0 -0 -0 -0 -0 -0 -0 -1 -1 -1 -1 -1 -0 -0 -0 -1 -1 -2 -2 -2 -1 -1 -1 -1 -1 -1 -1 -1 -1 -1 -2 -2 -3 -3 -3 -3 -3 -3 -3 -3 -3 -3 -3 -3 -3 -3 -3
0 0 0 0 0 0 0 0 0 0 0 0 0 0 -0 -0 -0 -0 -0 -0 -0 -0 -0 -0 -1 -1 -1 -1 -1 -1 -1 -1 -0 -0 -0 -0 -1 -1 -1 -2 -2 -2 -2 -1 -1 -1 -1 -1 -1 -1 -1 -2 -2 -3 -3 -3 -3 -3 -3 -3 -3 -3 -3 -3 -3 -3 -3 -3 -3
-0 -0 -0 -0 -0 -0 -0 -0 -0 -0 -0 -0 -0 -0 -0 -0 -0 -0 -0 -0 -0 -1 -1 -1 -1 -1 -1 -1 -1 -1 -1 -1 -0 -0 -0 -1 -1 -1 -1 -2 -2 -2 -2 -2 -2 -2 -2 -2 -2 -2 -2 -2 -2 -3 -3 -2 -2 -2 -2 -2 -2 -2 -2 -2 -2 -3 -3 -3 -3
-1 -1 -1 -1 -1 -1 -1 -1 -1 -1 -1 -1 -1 -0 -0 -0 -0 -0 -0 -0 -1 -1 -1 -1 -1 -1 -1 -0 -0 -0 -0 -0 -0 -0 -0 -1 -1 -1 -1 -2 -2 -2 -2 -2 -2 -2 -2 -2 -2 -2 -2 -2 -2 -2 -2 -2 -2 -2 -2 -2 -2 -2 -2 -2 -2 -2 -2 -3 -3
-1 -1 -1 -1 -1 -1 -1 -1 -1 -1 -1 -1 -1 -1 -0 -0 -1 -1 -1 -1 -1 -1 -1 -1 -1 -1 -0 0 0 -0 -0 -1 -1 -1 -1 -1 -1 -1 -2 -2 -2 -2 -2 -2 -2 -2 -2 -2 -2 -2 -2 -2 -2 -2 -1 -1 -1 -1 -1 -2 -2 -2 -2 -2 -2 -2 -2 -2 -3
Height
765 765 765 765 765 766 766 766 766 766 767 767 767 767 767 767 767 767 767 767 767 767 767 768 768 768 768 768 769 769 769 769 770 770 771 771 771 772 772 772 771 771 772 773 774 775 775 775 774 773 773 773 773 773 773 774 776 777 777 778 778 779 779 780 780 781 782 782 782
765 765 765 765 765 765 765 766 766 766 766 766 766 766 766 766 766 766 766 766 766 766 766 767 767 767 767 767 768 768 768 768 769 769 769 769 770 770 770 770 770 770 771 772 773 773 773 773 772 772 771 771 771 772 773 774 774 775 776 777 777 778 778 778 779 779 780 781 781
765 765 765 765 765 765 765 765 765 765 766 766 766 766 766 766 766 766 766 766 766 766 766 766 766 766 766 767 767 767 767 767 768 768 768 768 769 769 769 769 770 770 771 771 771 771 771 771 771 771 770 770 770 771 772 772 772 773 774 775 776 776 777 777 777 778 779 779 779
765 765 765 765 765 765 765 765 765 765 765 765 765 765 765 765 765 765 765 765 765 765 765 765 765 766 766 766 766 766 767 767 767 767 767 767 768 768 769 769 770 770 770 770 770 770 770 770 770 770 770 770 770 770 770 770 770 771 772 774 775 775 775 775 776 777 777 777 778
765 765 765 765 765 765 765 765 765 765 765 765 765 765 765 764 764 764 764 764 764 764 764 765 765 765 765 765 765 766 766 766 766 766 766 767 767 768 768 769 769 769 769 769 769 769 770 770 769 769 769 769 769 769 769 769 770 771 772 774 774 774 774 774 774 775 776 776 777
765 765 765 765 765 765 765 765 765 765 764 764 764 764 764 764 764 764 764 764 763 763 764 764 764 764 764 765 765 765 765 765 765 765 766 766 767 767 768 768 769 769 769 768 768 768 768 768 768 768 769 769 769 769 768 768 769 770 772 773 773 772 772 773 774 774 775 776 777
765 765 765 765 765 765 765 764 764 764 764 764 764 764 764 764 764 764 763 763 763 763 763 763 763 763 764 764 764 764 764 765 765 765 765 766 766 767 767 767 767 767 767 767 767 767 767 767 767 768 768 769 769 768 768 768 768 769 771 771 771 770 770 771 773 774 775 776 776
765 765 765 765 764 764 764 764 764 764 764 764 764 763 763 763 763 763 763 763 763 762 762 762 762 762 763 763 764 764 764 764 764 765 765 766 766 766 766 766 765 765 766 766 766 766 767 767 767 768 768 768 768 768 768 768 768 769 769 769 769 769 769 770 772 773 774 775 776
765 765 765 764 764 764 764 764 764 763 763 763 763 763 763 763 763 762 762 762 762 762 762 762 762 762 762 762 763 763 764 764 764 764 765 765 765 765 764 764 764 764 765 765 766 766 767 767 768 768 768 768 768 768 768 768 769 768 768 768 767 768 768 769 770 772 773 774 775
765 765 764 764 764 764 764 763 763 763 763 762 762 762 762 762 762 762 762 762 762 762 762 762 762 761 761 761 762 762 763 763 764 764 764 764 764 764 764 764 764 764 764 765 766 766 767 768 768 768 768 768 768 768 768 769 769 768 768 768 768 768 768 768 769 770 772 773 774
765 764 764 764 764 763 763 763 762 762 762 762 762 762 762 762 762 762 762 761 761 761 761 761 761 761 760 760 761 761 761 762 762 763 763 763 763 763 764 764 764 765 765 766 766 767 768 768 769 769 769 769 769 769 769 770 770 770 769 769 769 769 768 768 769 770 771 772 773
764 764 764 764 763 763 763 762 762 762 762 762 762 762 762 762 762 761 761 761 761 761 761 761 761 761 760 760 760 760 760 761 761 761 762 762 763 763 764 764 764 765 766 767 767 768 768 769 769 769 769 770 770 771 771 772 772 772 772 772 772 772 771 770 770 770 771 773 773
764 764 764 763 763 763 762 762 762 762 762 762 762 762 762 762 761 761 761 761 761 761 761 761 761 760 760 760 759 760 760 760 760 761 761 762 762 763 763 764 764 765 765 766 767 768 769 769 770 770 770 771 771 772 772 773 773 773 773 774 774 774 774 774 773 773 774 774 774
764 764 763 763 763 762 762 762 762 762 762 762 762 762 762 762 761 761 761 761 761 760 760 761 760 760 760 760 760 760 760 760 760 761 761 762 762 763 763 763 763 763 764 764 765 767 768 769 770 770 771 771 772 772 773 773 774 774 774 775 776 776 776 776 775 776 776 776 775
764 764 763 763 763 763 763 762 763 763 763 762 763 762 762 762 761 761 761 761 761 761 761 761 760 760 760 760 760 760 760 760 761 761 762 762 763 763 763 762 762 761 762 763 764 766 768 769 770 771 771 772 772 772 773 774 774 775 776 776 778 778 778 778 778 778 778 777 775
764 764 764 763 763 763 763 763 763 763 763 763 763 763 762 762 762 762 761 761 761 761 761 761 761 761 760 760 760 761 761 761 761 761 762 762 763 763 763 763 763 762 761 760 762 764 767 769 770 770 771 771 771 772 773 774 774 775 776 777 778 778 778 779 779 780 779 778 776
765 764 764 764 764 764 764 764 764 764 764 764 764 763 763 763 762 762 762 762 762 762 761 761 761 761 761 761 761 761 761 762 762 762 762 762 762 763 764 764 764 763 761 759 759 763 766 768 769 769 770 770 770 771 772 773 774 775 776 777 778 779 779 779 780 781 781 779 777
765 765 765 765 765 765 765 765 765 765 765 765 764 764 763 763 763 763 763 763 763 762 762 762 762 762 762 762 762 762 762 762 762 762 762 762 763 763 764 764 765 764 762 759 759 761 765 767 768 769 769 769 769 770 770 771 772 774 776 777 778 779 779 780 781 782 782 781 779
766 766 766 766 766 766 766 766 766 766 765 765 764 764 764 764 763 763 763 763 763 763 763 763 763 763 763 763 763 763 763 763 763 763 763 763 764 764 764 765 765 764 762 760 759 761 764 766 768 769 769 769 769 769 770 770 771 773 775 777 778 779 780 781 782 783 783 782 781
767 767 767 767 767 767 767 766 766 766 766 765 765 765 764 764 764 764 764 764 764 764 763 763 763 763 763 764 764 764 764 764 764 764 764 764 765 765 765 766 766 765 764 762 760 761 763 766 768 769 769 770 770 770 770 770 770 772 774 777 778 779 780 781 782 783 784 783 782
768 768 768 768 767 767 767 767 767 767 766 766 766 765 765 764 764 764 764 764 764 764 764 764 764 764 764 764 764 764 765 765 765 766 766 766 766 766 766 766 766 766 765 764 763 762 764 766 768 770 770 770 770 770 769 769 770 773 775 778 779 780 781 782 783 783 783 783 783
769 769 769 768 768 768 768 768 768 767 767 767 766 766 765 765 764 764 764 764 764 764 764 764 765 765 765 765 765 766 766 766 766 766 767 767 767 767 767 767 767 767 767 766 764 764 765 767 769 771 771 772 771 770 769 769 771 774 777 779 780 781 782 782 783 783 782 782 782
770 769 769 769 769 769 768 768 768 768 768 767 767 766 766 765 765 765 765 765 765 765 765 766 766 766 767 767 767 767 767 767 767 767 767 767 767 768 768 769 769 769 768 767 766 766 767 769 771 772 772 773 772 770 769 770 773 775 778 779 780 781 782 783 783 783 782 782 781
770 770 769 769 769 769 769 769 768 768 768 767 767 767 766 766 766 766 766 766 766 766 766 767 767 768 768 768 769 769 769 769 768 767 767 766 767 768 769 770 770 770 770 769 768 769 769 771 772 773 773 773 772 771 772 773 775 777 779 780 781 782 783 783 784 783 783 782 782
771 770 770 770 770 769 769 769 769 768 768 768 767 767 767 767 767 767 767 767 767 767 768 768 769 769 769 770 770 770 770 770 769 768 768 767 768 769 769 771 771 772 772 771 771 771 772 773 774 774 774 773 772 773 774 776 778 779 780 782 782 783 783 784 784 783 783 783 783
771 771 771 771 770 770 770 769 769 769 769 768 768 768 768 768 768 768 768 768 768 769 769 769 770 770 771 771 772 772 771 771 770 769 769 769 769 770 770 771 772 773 774 774 774 774 774 774 775 775 774 774 774 775 777 778 780 781 782 783 784 784 784 784 784 784 784 784 784
772 772 772 771 771 771 770 770 769 769 769 769 769 769 769 769 769 769 769 769 769 770 770 771 771 772 772 772 773 772 772 772 771 771 771 771 771 771 772 772 773 774 775 776 776 776 776 776 776 775 775 775 776 777 779 780 781 782 783 784 784 785 785 785 785 785 784 784 784
773 773 773 772 772 771 771 771 770 770 770 770 770 770 770 770 771 771 771 771 771 771 771 772 772 773 773 773 773 773 773 773 773 773 773 773 773 773 773 774 774 775 776 777 777 778 778 777 777 776 776 777 778 779 781 782 783 783 784 784 785 786 786 786 786 786 786 786 786
774 773 773 773 772 772 772 772 772 772 772 771 771 771 771 772 772 772 772 772 772 772 772 773 773 774 774 774 774 774 774 774 774 774 774 774 774 774 775 775 776 777 777 778 778 779 779 778 778 777 777 778 779 781 782 783 784 784 785 785 786 787 787 787 787 787 787 787 787
774 774 774 773 773 773 773 773 773 773 773 773 773 773 773 773 773 773 773 773 774 774 774 774 774 774 775 775 775 775 775 775 775 776 775 775 776 776 776 777 778 778 779 779 779 779 779 779 778 778 779 780 781 783 784 784 785 785 786 787 787 788 788 788 788 788 788 788 788
775 774 774 774 774 774 774 774 774 774 774 774 774 774 774 774 775 775 775 775 775 775 775 775 775 776 776 776 776 777 777 777 777 777 777 777 777 778 778 779 779 780 780 780 780 780 780 779 779 780 781 782 783 784 785 785 786 786 787 788 788 788 789 789 789 789 789 789 789
775 775 775 775 775 775 775 775 775 775 775 775 775 775 776 776 776 776 776 777 777 777 777 777 777 777 778 778 778 778 778 778 778 778 779 779 779 779 780 780 781 781 781 781 781 781 781 781 781 782 783 784 784 785 786 786 787 787 788 788 789 789 789 789 789 789 789 789 789
776 776 776 776 776 776 776 776 776 776 776 776 777 777 777 777 777 778 778 778 778 778 778 778 779 779 779 779 779 779 779 780 780 780 780 780 780 781 781 782 782 783 783 783 783 782 782 783 783 784 784 785 785 786 786 787 787 788 789 789 789 789 790 790 790 790 790 790 790
777 777 777 777 777 777 777 778 778 778 778 778 778 778 778 779 779 779 779 779 779 779 779 780 780 780 780 780 780 781 781 781 781 782 782 782 782 782 783 783 784 784 784 784 784 784 784 784 784 785 785 786 786 787 787 788 788 789 789 789 790 790 790 790 790 790 790 790 790
778 778 778 778 778 779 779 779 779 779 779 779 779 779 780 780 780 780 780 780 780 780 780 781 781 781 781 782 782 782 783 783 783 783 784 784 784 784 784 784 785 785 786 785 785 785 785 785 786 786 786 787 787 788 788 789 789 789 790 790 790 790 791 791 791 791 791 791 791
779 779 779 779 779 779 780 780 780 780 780 780 781 781 781 781 782 782 782 782 782 781 782 782 782 782 783 783 784 784 784 784 785 785 785 785 785 785 785 786 786 787 787 787 787 787 787 787 787 787 788 788 788 789 789 789 789 790 790 791 791 791 791 791 792 792 792 792 792
780 780 780 780 780 780 781 781 781 781 781 782 782 782 782 783 783 783 783 783 783 783 783 783 784 784 784 785 785 786 786 786 786 787 787 787 786 786 787 787 787 788 788 788 788 788 788 788 788 788 788 788 789 789 790 790 790 791 791 792 792 792 792 793 793 793 793 792 792
781 781 781 781 781 781 782 782 782 782 782 783 783 783 784 784 784 784 784 784 784 784 785 785 785 785 786 786 787 787 788 788 788 788 788 788 788 788 788 788 789 789 789 789 789 789 789 789 789 789 789 789 790 790 791 791 792 792 792 793 793 793 793 793 793 793 793 793 792
782 782 782 782 782 782 782 783 783 783 784 784 784 784 784 785 785 785 785 786 786 786 786 786 787 787 787 787 788 788 789 789 789 789 789 789 789 789 789 789 789 789 790 790 790 790 790 790 790 790 790 790 791 792 792 793 793 793 793 794 794 794 794 794 794 794 793 793 793
782 782 782 782 783 783 783 784 784 784 784 785 785 785 785 786 786 786 787 787 787 787 787 788 788 788 789 789 789 789 789 790 790 790 790 790 790 790 790 790 790 790 791 791 791 791 791 791 791 791 792 792 793 793 793 794 794 794 794 794 794 794 794 794 794 794 794 794 793
783 783 783 783 783 784 784 784 785 785 785 786 786 786 787 787 787 787 788 788 788 788 789 789 789 789 790 790 790 790 790 791 791 791 791 791 791 791 791 791 791 791 792 792 792 792 792 793 793 793 793 793 794 794 794 794 794 794 795 795 795 795 795 794 794 794 794 794 794
Wind_Speed
2 3 4 5 6 7 8 9 10 10 11 11 12 12 13 13 14 14 14 14 15 15 15 15 15 15 16 16 16 16 17 17 17 17 17 15 15 15 16 16 16 16 17 16 16 17 18 20 21 23 23 23 22 22 21 21 21 22 22 24 26 29 31 31 32 33 33 32 31
2 1 1 2 3 4 6 7 8 9 10 11 12 12 13 14 14 14 14 14 14 14 14 14 14 14 15 15 15 15 15 15 16 16 15 15 14 14 15 16 16 17 18 18 19 20 21 22 23 24 24 23 22 21 21 21 21 22 22 23 26 28 29 31 31 32 32 32 31
3 2 1 0 1 2 3 4 6 7 8 9 10 11 12 13 13 14 14 14 14 14 14 13 14 14 14 14 13 13 12 12 14 15 15 17 18 18 18 19 20 21 21 22 22 23 23 23 24 24 24 23 23 22 22 23 24 24 24 26 27 27 28 29 30 30 31 31 30
3 2 2 2 1 1 2 3 4 5 6 7 8 9 11 11 12 13 13 13 14 14 14 13 13 13 13 13 13 12 10 10 12 13 15 16 18 19 20 21 23 25 26 26 25 23 23 23 23 23 24 24 24 24 24 24 24 25 26 27 27 27 27 27 28 29 29 29 28
3 3 3 3 3 3 3 3 4 4 5 5 6 7 8 9 10 11 12 12 13 13 13 14 14 13 13 13 13 11 9 8 10 11 12 14 16 18 19 21 23 26 27 28 26 23 23 24 24 23 23 23 23 23 23 24 26 27 26 26 26 25 25 24 25 26 26 26 25
5 4 4 4 4 5 4 4 5 5 5 5 6 6 7 8 9 10 10 11 12 12 13 13 14 13 13 11 10 8 7 6 7 9 11 13 16 18 20 21 23 25 27 28 27 25 24 24 23 21 20 19 19 20 21 24 25 24 23 24 23 22 21 21 22 23 23 23 23
6 6 6 5 5 5 5 5 6 6 6 6 6 6 7 8 8 9 10 11 12 12 12 12 13 12 11 9 8 7 7 8 10 12 14 16 18 21 23 24 24 25 26 26 26 24 23 21 20 19 18 18 17 18 18 20 21 21 22 21 21 20 19 19 20 21 21 21 20
6 6 6 6 6 6 6 6 6 6 6 6 7 7 8 8 8 9 10 11 12 12 12 12 11 10 9 9 8 8 8 10 12 14 16 19 21 23 24 24 23 23 23 23 23 22 20 19 18 17 17 17 17 16 16 17 18 19 19 19 19 19 19 19 19 20 20 19 19
7 7 7 6 6 6 7 7 6 6 7 7 7 8 8 8 8 8 9 9 10 11 11 11 10 7 6 6 7 8 8 10 12 14 17 20 22 22 22 21 21 20 20 20 20 19 18 17 16 16 16 16 16 16 15 15 15 16 17 17 18 18 19 19 19 19 19 19 18
7 7 7 7 7 7 7 7 7 6 6 7 7 7 7 7 7 7 8 8 8 9 10 10 8 5 4 5 8 10 11 12 14 16 18 20 20 19 18 17 16 16 16 16 16 16 15 15 15 15 15 16 16 15 15 14 14 14 15 16 16 17 17 18 18 18 18 18 18
7 7 7 7 7 7 7 7 6 6 6 6 7 7 7 7 7 8 8 8 8 8 9 9 7 6 6 8 9 10 11 13 14 15 16 17 16 15 13 12 11 11 11 12 12 12 12 13 13 13 13 14 14 13 12 12 12 12 13 14 15 15 15 15 15 16 16 17 18
8 8 8 8 8 8 7 7 6 6 6 7 7 7 8 8 9 9 9 9 8 8 7 7 6 6 7 8 8 8 10 11 12 13 13 12 11 10 9 8 8 7 7 7 7 8 9 9 10 10 10 10 9 9 9 9 10 11 12 12 13 12 12 12 13 14 15 16 17
8 9 9 9 8 8 8 7 7 7 8 8 9 9 9 10 9 9 9 9 8 7 6 5 4 4 4 5 6 7 8 9 10 9 8 8 7 6 5 4 4 4 4 4 4 5 6 6 7 7 6 6 6 6 7 8 9 10 10 10 10 10 10 10 11 13 14 15 16
9 10 10 10 10 9 9 9 8 9 9 10 10 10 10 9 9 8 7 7 6 5 4 4 3 2 1 1 2 3 4 5 5 4 4 4 4 3 4 4 5 5 5 5 4 4 4 4 4 4 4 4 4 5 6 7 8 8 8 8 8 9 9 10 11 13 14 15 15
10 11 11 11 11 11 10 10 10 10 11 11 11 10 10 9 9 8 7 5 4 3 2 2 2 3 3 2 2 2 1 2 2 2 2 2 2 3 4 5 6 7 7 6 5 5 4 4 3 4 4 4 5 5 6 6 6 6 7 7 8 9 10 11 12 13 15 16 16
11 12 12 13 13 13 12 12 11 11 12 12 11 11 10 9 9 8 7 6 4 3 2 2 3 3 3 2 2 2 1 1 2 3 3 4 4 4 4 5 6 7 7 7 6 5 4 4 4 4 5 5 6 6 6 6 6 7 7 8 9 10 11 11 12 13 15 16 17
12 12 13 14 14 14 13 13 12 12 12 12 11 11 10 9 9 8 8 7 6 5 4 3 3 2 2 2 1 0 1 1 2 3 4 4 4 4 4 4 5 6 6 6 5 4 4 5 5 6 6 6 6 7 7 7 8 8 8 9 9 10 10 11 12 13 14 15 16
12 13 14 14 14 14 13 13 12 12 12 11 11 10 10 9 9 8 8 7 7 6 5 5 4 3 3 2 1 0 0 1 2 3 4 4 4 4 4 4 4 4 4 4 4 4 5 5 6 6 7 7 7 8 8 8 9 9 9 9 9 9 10 11 12 13 13 14 15
12 13 14 14 14 13 13 12 12 12 11 11 10 10 9 9 8 8 8 8 7 6 6 6 5 4 4 3 3 2 2 2 2 3 4 4 4 4 3 3 3 3 2 3 4 5 5 6 6 7 7 8 8 9 9 10 10 9 9 9 9 9 9 10 11 12 13 13 14
13 13 13 13 13 12 12 12 12 11 11 10 9 9 9 8 8 8 8 8 8 7 6 6 6 5 5 4 4 4 4 3 3 3 3 3 3 3 3 2 2 2 3 4 6 6 7 6 7 7 8 8 9 10 11 11 11 10 9 9 9 9 9 10 11 11 12 12 12
12 12 12 12 12 12 12 11 10 10 9 9 9 9 9 8 8 8 8 8 7 7 7 6 6 6 6 5 5 5 5 5 5 5 5 4 4 4 3 3 3 4 5 6 8 8 8 8 8 8 9 9 11 12 12 12 12 11 11 10 10 10 10 10 11 12 12 12 11
11 11 11 11 11 10 10 9 9 9 9 9 9 9 9 9 9 9 8 7 7 7 7 7 7 6 6 6 5 5 5 6 6 6 6 6 6 6 6 6 6 7 8 8 9 10 9 9 9 9 10 11 11 12 13 13 13 13 12 12 11 11 11 11 11 12 12 12 12
10 10 10 10 9 9 8 8 8 9 9 9 10 10 10 10 10 9 8 8 8 8 8 8 7 7 6 6 5 5 6 7 8 8 9 9 9 9 9 9 9 9 9 10 10 10 10 10 10 11 11 12 12 13 13 13 13 13 13 12 12 11 11 11 11 11 11 12 11
10 10 9 9 8 8 8 8 9 9 10 10 11 11 11 11 10 10 10 9 10 10 10 10 9 9 8 7 7 8 8 9 11 11 12 12 12 11 11 10 10 10 10 10 10 10 11 11 11 12 12 13 13 14 14 14 13 13 13 12 12 11 11 11 10 10 10 10 10
10 10 9 9 9 9 9 10 10 11 11 11 12 12 12 12 12 11 11 12 12 12 12 12 12 11 11 10 10 11 11 12 13 13 14 13 13 12 12 11 11 11 10 10 9 10 10 11 11 12 13 14 14 14 14 14 13 13 12 12 11 11 11 11 10 10 10 10 10
10 10 10 10 10 11 11 12 12 12 12 12 13 13 13 13 13 13 13 14 14 14 13 13 13 13 12 12 12 12 13 13 13 14 14 14 14 13 13 13 12 12 11 11 10 10 10 10 11 12 13 14 14 14 14 13 12 12 11 11 11 11 11 10 10 10 9 9 9
10 10 11 11 11 12 12 12 13 13 13 13 13 14 13 13 13 13 13 14 13 13 13 13 13 13 13 13 13 13 14 14 14 14 15 15 15 15 15 15 14 13 12 11 11 11 11 11 11 12 13 14 14 14 14 13 12 11 11 10 10 10 10 10 9 8 8 7 7
10 10 10 11 12 12 12 13 13 13 13 13 13 13 13 13 12 12 13 13 13 13 13 13 13 13 13 13 14 14 14 14 14 15 15 15 16 16 16 16 15 14 12 11 11 11 12 12 12 12 13 14 14 14 13 12 12 11 11 10 10 9 9 9 8 8 7 6 6
11 10 11 11 12 12 12 13 13 13 13 13 13 13 13 13 13 13 12 12 12 13 13 13 13 13 14 14 14 14 15 15 15 15 16 16 17 17 17 16 15 14 13 12 13 13 13 13 13 12 12 13 14 13 13 12 12 11 11 10 9 9 8 8 8 8 7 7 7
11 11 12 12 12 12 12 12 12 12 13 13 13 13 13 13 13 13 13 13 13 13 13 13 14 14 14 14 15 15 15 16 16 16 17 18 18 18 18 17 16 15 14 14 14 14 14 13 12 12 11 11 12 12 12 11 11 10 10 10 9 9 9 9 9 9 9 8 8
12 12 12 13 13 13 12 12 13 13 13 13 14 14 14 14 14 14 14 14 14 14 15 15 16 16 16 16 16 16 17 17 17 18 18 19 19 19 19 19 18 17 15 15 15 14 14 13 12 11 10 10 10 10 10 10 10 10 10 10 10 10 10 10 10 10 9 9 9
12 12 13 13 13 13 13 13 13 13 14 14 14 15 15 15 15 15 15 15 15 15 16 16 17 17 17 17 17 18 18 19 19 20 20 20 21 21 21 20 18 17 16 15 15 14 13 12 11 10 9 9 9 9 9 10 10 11 11 11 11 10 10 10 10 10 9 9 8
12 12 13 13 13 13 13 13 13 14 14 14 14 15 15 15 15 15 15 15 15 16 16 17 17 17 17 18 19 19 20 20 20 21 21 21 21 20 20 19 18 16 15 15 14 13 12 11 10 9 9 9 9 9 10 10 11 11 11 11 11 10 10 10 9 9 9 8 8
12 12 12 13 13 13 13 13 13 14 14 14 14 14 14 15 15 15 15 15 16 16 17 17 17 18 18 18 19 20 20 20 20 20 20 20 19 19 19 18 17 16 15 14 13 13 12 11 10 10 10 10 10 11 11 11 11 12 11 11 10 10 9 9 9 9 8 8 7
11 11 12 12 12 12 13 13 13 14 14 14 14 14 14 15 15 15 15 15 16 17 17 18 18 19 19 20 20 19 19 20 19 19 19 19 19 19 19 18 16 15 14 13 13 12 11 11 11 11 11 11 11 12 12 12 12 12 11 11 10 10 10 9 9 8 8 7 6
11 11 12 12 12 12 13 13 13 14 14 14 14 14 14 14 14 14 15 16 17 18 18 18 19 19 19 19 19 19 19 19 18 18 18 18 18 19 18 17 16 15 14 14 13 13 12 12 11 11 11 11 12 12 12 12 12 12 11 11 10 10 9 8 7 6 5 4 4
11 11 11 12 12 12 13 13 14 14 14 14 14 14 14 14 14 14 15 16 17 18 18 19 19 19 19 19 20 19 18 18 18 17 17 17 17 18 18 17 16 15 15 15 15 14 14 13 12 12 12 12 13 13 13 12 11 11 10 9 8 7 6 5 5 4 4 3 3
11 11 11 12 12 13 13 13 14 14 14 14 14 14 14 14 14 15 15 16 17 18 18 19 20 20 20 20 20 19 18 17 17 17 17 17 17 17 17 17 16 15 15 15 15 15 15 14 14 13 13 13 13 12 10 9 8 8 7 6 5 5 4 4 4 4 4 4 3
11 11 12 12 13 13 13 14 14 14 14 14 14 14 14 14 15 15 15 16 17 18 19 19 20 20 20 19 19 18 17 16 15 15 16 16 15 15 16 16 15 14 14 14 14 14 14 14 13 12 12 11 10 8 7 6 6 5 5 4 4 4 4 3 4 4 4 5 5
11 12 13 13 14 14 14 15 15 14 14 14 14 14 14 14 14 15 15 16 17 18 18 19 18 18 18 18 17 17 16 14 13 13 14 14 14 14 14 14 14 13 12 12 12 12 11 11 10 9 8 7 6 5 5 5 4 4 4 4 3 3 3 3 3 4 4 5 5
12 13 15 15 16 16 16 16 15 15 15 15 15 14 14 14 14 15 15 15 16 16 17 17 17 16 16 16 15 15 14 13 12 12 12 12 13 13 13 13 12 11 11 10 10 9 9 8 7 7 6 5 4 4 4 4 4 4 4 3 3 3 3 3 4 4 4 4 4
Wind_Direction
219 232 239 243 246 249 252 253 253 254 254 255 254 253 251 250 250 249 248 247 247 247 248 249 249 250 251 251 251 251 252 252 253 255 256 257 258 259 259 256 251 247 246 248 250 249 245 239 235 234 234 233 231 229 229 230 232 234 236 240 243 244 241 236 234 233 232 231 232
75 83 205 238 242 246 250 252 253 254 254 255 255 256 255 255 255 255 253 251 250 250 251 252 252 253 254 255 254 253 253 253 254 255 255 253 253 255 256 257 256 253 248 245 242 241 240 239 237 235 233 233 232 233 235 238 242 244 247 250 249 246 241 236 235 235 234 233 233
60 60 63 61 244 246 248 251 253 255 255 255 256 256 257 257 257 258 257 256 256 256 256 257 257 257 258 258 257 256 255 254 254 253 252 251 253 257 261 265 267 264 258 251 245 242 241 240 239 237 236 236 238 239 242 245 248 252 254 255 251 245 239 236 236 235 234 233 233
41 37 31 22 3 327 296 280 275 272 270 267 264 262 261 260 260 260 260 260 260 259 259 260 261 262 262 262 260 258 255 252 250 250 252 256 260 264 267 270 272 270 265 258 251 248 248 246 245 243 242 243 244 245 246 248 253 257 257 254 248 241 237 236 235 235 234 232 231
16 13 8 2 355 347 336 322 313 307 301 295 286 279 273 269 266 264 262 260 259 258 257 259 261 263 265 266 266 265 259 251 249 252 260 267 271 272 273 274 273 271 267 262 257 254 253 253 250 247 246 246 245 244 246 252 257 257 253 246 240 236 235 234 234 233 232 230 228
4 2 1 356 351 345 338 332 326 323 318 312 305 297 291 285 280 275 271 268 265 262 260 259 259 261 263 267 272 274 271 260 261 268 275 279 281 281 281 279 275 271 267 263 260 256 253 250 247 244 242 241 240 241 246 252 252 247 239 233 230 229 230 230 230 229 228 227 225
360 360 359 355 351 346 340 334 328 323 318 313 308 303 300 297 293 289 285 283 280 277 273 269 264 260 257 258 263 268 270 269 274 280 284 284 284 284 282 280 276 271 267 264 260 255 250 245 242 240 238 237 235 236 238 240 237 231 226 223 225 227 227 225 226 226 225 223 221
359 359 358 354 350 346 340 334 327 322 316 311 307 305 303 301 299 296 293 291 288 286 284 283 277 268 258 253 255 260 266 270 277 281 283 282 281 278 276 274 271 268 265 263 258 252 247 243 241 238 235 235 233 231 229 227 223 220 219 221 226 228 226 222 222 222 222 220 217
359 358 356 353 350 345 339 332 325 319 313 308 306 306 305 304 302 300 297 293 290 289 289 291 291 283 266 254 257 261 267 272 277 278 277 276 273 270 267 265 264 262 261 259 256 251 247 244 239 237 236 236 233 230 226 222 219 219 221 223 225 224 221 220 220 219 218 216 211
358 356 354 352 350 345 338 331 324 318 314 312 311 311 312 312 311 308 306 302 299 295 292 292 299 302 286 266 264 266 270 273 274 272 268 265 263 260 258 257 257 257 256 255 253 250 246 244 240 239 239 239 236 233 229 225 223 223 224 226 224 219 216 215 214 214 212 209 204
358 357 356 354 349 344 340 335 330 327 326 326 326 328 329 331 331 329 324 320 313 308 303 298 300 294 278 268 266 266 266 267 264 260 256 253 252 252 252 253 255 257 256 255 251 248 246 244 242 241 241 241 240 237 233 229 227 225 224 224 222 217 210 205 203 203 202 200 196
1 1 359 357 353 350 348 346 346 347 349 351 352 352 353 353 351 347 342 335 326 322 319 313 307 292 275 266 259 255 253 251 248 245 243 243 245 249 252 256 259 261 260 257 252 247 243 241 241 239 239 240 240 238 234 229 225 222 220 218 217 211 203 194 189 189 190 190 185
7 7 5 3 1 1 2 4 6 9 11 10 9 7 4 359 353 348 346 343 340 335 328 323 324 308 283 266 249 241 237 235 234 235 237 240 243 245 246 244 242 240 235 231 229 229 231 232 233 233 232 233 234 231 226 222 217 215 213 210 206 199 189 181 177 177 178 178 172
14 14 12 11 12 13 15 17 20 21 19 15 12 8 2 355 346 341 341 343 348 350 346 347 358 7 4 282 226 219 217 219 221 224 230 238 237 229 216 206 202 199 195 191 188 189 196 206 213 215 214 212 210 208 206 206 205 204 202 197 189 181 173 169 169 169 168 165 159
20 20 20 19 20 22 23 24 26 25 21 17 14 9 3 357 351 348 347 347 346 355 16 34 55 71 79 88 115 140 164 174 173 171 168 156 162 175 185 191 193 191 186 179 173 166 164 171 179 185 188 187 183 183 183 185 186 185 181 175 170 165 162 161 163 164 162 158 153
25 25 25 25 27 28 28 27 28 27 25 23 18 13 10 7 7 8 11 13 11 13 36 73 85 91 96 103 111 119 138 167 177 170 162 156 160 171 184 192 192 188 179 169 161 160 168 179 185 189 189 185 179 174 170 169 166 164 161 160 161 161 160 160 161 162 161 160 154
29 29 29 31 32 33 33 32 31 31 30 28 24 21 20 22 24 28 32 33 32 35 44 60 71 80 87 95 105 131 192 204 200 193 186 185 187 191 196 198 194 187 175 159 152 162 183 196 201 201 197 189 179 170 164 160 157 156 157 158 159 160 161 163 164 164 163 162 158
32 32 33 34 36 36 36 36 36 35 34 32 29 28 28 32 36 39 41 44 44 48 57 62 62 63 65 68 63 62 143 182 194 194 193 193 196 199 201 198 194 187 173 151 148 165 184 195 199 198 192 183 172 165 159 156 154 154 156 159 159 159 161 163 166 166 164 161 159
34 34 34 35 36 37 38 37 37 36 34 32 32 32 33 37 42 46 49 52 54 57 64 69 71 71 73 76 79 88 103 115 148 169 176 179 182 185 189 191 194 192 172 146 146 158 174 185 189 187 180 172 163 157 153 149 146 145 148 152 154 155 156 159 162 164 164 162 160
36 36 36 36 37 38 38 37 36 34 31 30 31 34 37 41 46 51 55 58 61 64 67 70 72 74 77 80 87 94 100 106 116 132 142 150 154 157 163 171 174 162 144 136 138 144 154 163 168 168 165 160 153 146 141 136 132 130 132 138 140 143 145 149 153 157 160 160 157
38 38 38 38 39 39 38 36 34 32 31 32 35 39 42 45 49 53 57 60 65 68 69 70 71 74 77 79 86 93 98 102 103 105 108 112 116 117 122 128 131 127 126 124 126 130 135 143 148 151 150 147 143 138 133 126 122 121 124 128 131 133 137 142 147 151 152 152 148
39 40 41 41 41 40 39 38 38 38 38 41 44 47 49 50 51 53 54 56 59 62 64 65 69 72 76 79 84 92 100 107 107 106 104 103 101 101 101 105 111 115 116 117 118 121 125 131 136 138 137 136 133 129 124 120 120 123 127 129 131 134 138 143 147 149 148 148 146
40 42 43 43 43 43 46 47 49 50 50 51 52 54 55 55 53 52 52 52 54 57 59 61 65 68 72 77 83 94 102 108 108 107 104 101 98 96 96 97 98 101 103 107 112 116 120 123 126 128 128 125 121 117 115 117 123 127 130 132 133 136 139 144 147 148 147 148 149
43 45 47 47 47 50 53 55 57 58 59 58 58 58 57 56 54 53 53 56 59 62 65 67 70 73 77 82 89 94 98 100 99 99 98 96 95 94 93 91 89 89 91 97 105 112 117 119 121 122 121 118 114 111 112 119 125 129 131 131 132 134 136 140 143 144 144 144 146
47 50 52 52 54 56 58 59 62 63 64 64 63 61 60 58 57 58 60 63 66 69 72 75 77 78 80 83 86 89 90 90 89 89 89 89 90 90 88 85 82 81 83 88 96 105 113 118 120 120 118 115 113 113 115 120 125 127 129 129 130 131 132 135 137 138 140 141 142
52 54 55 56 58 60 62 62 63 64 64 64 64 64 63 63 64 66 68 70 71 73 75 76 77 77 77 77 79 80 80 80 81 82 83 84 85 85 84 83 81 79 80 82 88 95 103 111 117 117 114 111 111 112 113 115 119 121 123 124 126 127 128 129 130 132 135 138 140
53 54 56 58 61 62 63 62 63 62 62 63 64 65 65 66 68 70 72 74 75 76 76 75 75 75 76 76 76 76 76 76 77 79 80 82 83 83 83 83 82 81 81 82 84 88 92 98 105 109 110 108 107 107 108 109 113 116 118 118 120 121 122 121 121 123 125 129 134
51 53 55 59 60 61 61 60 60 59 60 60 62 64 65 67 68 69 71 73 76 77 77 77 77 78 78 77 77 77 78 78 79 80 81 81 82 82 83 83 83 84 83 83 84 86 88 91 96 102 107 109 110 109 109 109 111 113 114 112 112 113 113 113 112 112 113 114 117
52 52 54 58 58 58 58 58 57 58 58 59 61 63 65 67 67 68 69 71 74 76 78 80 81 81 81 80 79 79 80 80 81 82 82 83 83 83 83 84 84 84 84 85 87 88 88 89 93 99 106 114 117 116 115 114 113 113 111 109 107 106 106 105 103 103 103 104 104
54 55 56 57 58 57 57 57 58 60 60 62 63 63 65 66 67 67 69 71 73 76 80 84 85 84 84 83 83 83 82 82 83 83 84 84 84 85 85 85 85 85 85 86 87 88 88 89 92 97 108 119 122 121 119 117 114 112 109 107 106 105 104 102 101 100 99 99 100
56 58 58 59 59 59 59 61 62 64 65 66 67 67 67 68 68 69 71 74 78 81 84 86 86 86 87 87 87 86 86 86 85 85 85 85 85 86 85 85 85 85 85 85 86 85 86 87 91 98 107 117 119 119 118 115 112 109 107 107 107 106 105 103 101 99 97 95 92
59 60 62 63 63 63 64 65 66 69 70 72 71 72 72 73 73 74 75 77 81 83 85 86 87 88 89 89 89 89 89 88 87 87 87 87 86 85 84 84 83 82 83 83 83 83 83 85 90 96 103 110 112 113 114 113 111 109 108 107 106 105 103 100 97 95 92 88 84
62 63 65 67 67 68 69 70 71 73 74 75 75 76 77 78 78 79 80 81 83 85 87 88 89 90 90 90 89 89 88 88 88 88 89 89 88 86 84 82 81 80 80 81 82 83 84 86 91 97 103 107 109 111 112 111 110 108 106 104 102 99 96 93 91 89 85 81 77
65 67 68 70 71 71 72 73 75 75 76 77 78 79 80 80 81 81 83 85 87 89 90 91 92 91 90 90 91 91 90 90 90 90 90 90 89 87 84 82 82 81 81 83 84 86 88 92 97 102 106 108 109 109 108 107 105 103 102 99 95 92 88 85 82 79 76 72 67
67 69 71 73 74 75 76 76 77 77 77 78 79 79 80 80 80 82 84 87 89 90 90 91 91 92 92 92 93 93 93 92 92 92 91 91 90 88 85 83 83 83 83 85 87 88 91 94 98 101 104 105 104 104 102 101 99 98 96 94 90 86 82 78 75 72 68 63 58
69 72 74 76 77 77 78 78 78 78 78 79 79 79 79 80 81 84 88 91 92 91 91 91 92 92 92 92 93 94 95 95 94 93 93 92 91 90 89 87 87 86 85 86 87 87 88 89 92 94 96 97 98 98 97 96 96 95 93 90 87 82 78 73 70 67 63 58 52
72 75 77 79 79 79 79 80 80 80 80 79 80 80 81 82 84 88 92 94 94 93 93 94 93 93 93 94 95 97 98 98 96 94 92 91 91 92 93 92 90 88 87 85 85 84 84 84 86 88 90 92 93 93 93 93 92 90 89 87 84 81 78 74 69 62 55 49 59
74 77 80 81 82 82 82 82 82 81 81 81 82 83 84 85 87 90 94 97 96 95 96 96 96 97 99 101 102 102 101 99 96 93 91 89 90 92 94 94 92 90 87 85 83 83 83 83 84 86 87 89 90 90 90 90 91 90 89 89 86 83 78 73 65 55 40 22 26
77 80 83 84 85 85 85 85 85 85 86 87 87 88 88 89 91 94 98 101 101 101 100 100 101 104 107 109 109 107 104 100 95 91 90 90 90 91 93 95 94 92 89 86 83 82 82 81 82 82 83 83 85 87 91 94 97 98 95 92 88 81 71 60 53 44 30 13 10
86 90 92 92 91 91 90 90 90 91 92 92 92 92 93 94 97 100 103 105 106 106 105 105 107 110 112 113 112 111 108 104 98 94 92 92 92 92 93 95 96 95 93 89 85 83 82 81 80 79 78 77 81 86 93 96 97 94 90 84 77 67 57 47 37 31 25 18 11
91 95 98 98 96 96 95 94 94 94 94 95 95 95 97 99 101 103 105 105 106 108 108 109 110 112 114 114 114 114 113 110 106 101 98 95 94 93 93 95 97 98 97 95 92 89 88 85 82 79 78 78 80 83 85 87 85 81 76 68 58 48 37 27 22 17 14 13 11